Date, platform_minetest, platform_other, reason_new, reason_dependency, reason_update
2023-07-21, 3, 1, 3, 0, 0
2023-07-22, 2, 1, 2, 0, 0
2023-07-23, 3, 8, 2, 0, 1
2023-07-24, 3, 1, 3, 0, 0
2023-07-25, 2, 2, 2, 0, 0
2023-07-26, 2, 0, 2, 0, 0
2023-07-27, 1, 0, 0, 0, 0
2023-07-29, 1, 0, 0, 0, 0
2023-07-31, 5, 0, 4, 0, 0
2023-08-02, 1, 1, 1, 0, 0
2023-08-04, 0, 3, 0, 0, 0
2023-08-05, 3, 1, 3, 0, 0
2023-08-06, 2, 0, 2, 0, 0
2023-08-07, 1, 0, 1, 0, 0
2023-08-08, 2, 1, 2, 0, 0
2023-08-10, 1, 0, 0, 0, 0
2023-08-11, 1, 0, 1, 0, 0
2023-08-12, 0, 2, 0, 0, 0
2023-08-13, 1, 1, 1, 0, 0
2023-08-14, 4, 1, 4, 0, 0
2023-08-15, 2, 0, 2, 0, 0
2023-08-16, 0, 1, 0, 0, 0
2023-08-17, 5, 0, 4, 0, 0
2023-08-18, 3, 0, 3, 0, 0
2023-08-19, 2, 0, 2, 0, 0
2023-08-20, 2, 0, 2, 0, 0
2023-08-21, 1, 0, 1, 0, 0
2023-08-22, 3, 0, 3, 0, 0
2023-08-24, 2, 0, 2, 0, 0
2023-08-25, 6, 0, 5, 0, 0
2023-08-26, 4, 0, 3, 0, 0
2023-08-27, 2, 0, 2, 0, 0
2023-08-28, 2, 0, 2, 0, 0
2023-08-30, 1, 0, 1, 0, 0
2023-08-31, 7, 0, 7, 0, 0
2023-09-02, 2, 1, 2, 0, 0
2023-09-03, 3, 2, 3, 0, 0
2023-09-04, 1, 0, 1, 0, 0
2023-09-05, 1, 0, 1, 0, 0
2023-09-06, 1, 0, 0, 0, 0
2023-09-07, 2, 0, 2, 0, 0
2023-09-08, 2, 0, 1, 0, 0
2023-09-09, 2, 1, 2, 0, 0
2023-09-10, 2, 0, 2, 0, 0
2023-09-11, 2, 0, 1, 0, 0
2023-09-12, 2, 0, 2, 0, 0
2023-09-13, 1, 0, 1, 0, 0
2023-09-14, 1, 1, 1, 0, 0
2023-09-16, 0, 1, 0, 0, 0
2023-09-17, 2, 0, 2, 0, 0
2023-09-18, 2, 0, 2, 0, 0
2023-09-19, 1, 0, 1, 0, 0
2023-09-20, 2, 0, 2, 0, 0
2023-09-21, 1, 0, 1, 0, 0
2023-09-23, 2, 2, 2, 0, 0
2023-09-24, 1, 0, 1, 0, 0
2023-09-25, 2, 0, 2, 0, 0
2023-09-26, 1, 0, 1, 0, 0
2023-09-27, 2, 0, 2, 0, 0
2023-09-28, 2, 0, 1, 0, 0
2023-09-30, 1, 0, 1, 0, 0
2023-10-01, 2, 0, 1, 0, 0
2023-10-02, 3, 0, 3, 0, 0
2023-10-03, 3, 0, 3, 0, 0
2023-10-04, 5, 0, 5, 0, 0
2023-10-05, 1, 0, 0, 0, 0
2023-10-07, 3, 0, 3, 0, 0
2023-10-08, 3, 0, 3, 0, 0
2023-10-09, 1, 0, 1, 0, 0
2023-10-10, 1, 1, 1, 0, 0
2023-10-11, 3, 0, 3, 0, 0
2023-10-12, 3, 0, 2, 0, 0
2023-10-13, 3, 0, 3, 0, 0
2023-10-14, 9, 0, 7, 0, 0
2023-10-15, 4, 1, 3, 0, 0
2023-10-16, 1, 0, 1, 0, 0
2023-10-18, 6, 1, 5, 0, 0
2023-10-19, 7, 0, 3, 0, 0
2023-10-21, 3, 0, 3, 0, 0
2023-10-22, 3, 0, 2, 0, 0
2023-10-23, 3, 0, 2, 0, 0
2023-10-24, 2, 0, 2, 0, 0
2023-10-25, 1, 0, 0, 0, 0
2023-10-26, 1, 0, 1, 0, 0
2023-10-27, 1, 0, 1, 0, 0
2023-10-28, 4, 0, 4, 0, 0
2023-10-29, 3, 0, 3, 0, 0
2023-10-30, 3, 0, 3, 0, 0
2023-10-31, 1, 0, 0, 0, 0
2023-11-01, 3, 0, 3, 0, 0
2023-11-02, 3, 1, 3, 0, 0
2023-11-03, 2, 0, 2, 0, 0
2023-11-04, 4, 0, 3, 0, 0
2023-11-05, 2, 0, 2, 0, 0
2023-11-06, 5, 0, 5, 0, 0
2023-11-07, 1, 0, 1, 0, 0
2023-11-09, 1, 0, 1, 0, 0
2023-11-10, 8, 0, 7, 0, 0
2023-11-11, 4, 0, 4, 0, 0
2023-11-12, 2, 0, 2, 0, 0
2023-11-13, 2, 0, 2, 0, 0
2023-11-14, 2, 0, 2, 0, 0
2023-11-15, 1, 0, 1, 0, 0
2023-11-16, 4, 0, 4, 0, 0
2023-11-17, 0, 1, 0, 0, 0
2023-11-18, 3, 0, 3, 0, 0
2023-11-19, 2, 0, 1, 0, 0
2023-11-21, 2, 1, 2, 0, 0
2023-11-22, 2, 1, 1, 0, 0
2023-11-24, 3, 0, 3, 0, 0
2023-11-25, 2, 0, 2, 0, 0
2023-11-26, 7, 0, 7, 0, 0
2023-11-27, 1, 0, 1, 0, 0
2023-11-28, 2, 0, 1, 0, 0
2023-11-29, 6, 1, 5, 0, 0
2023-11-30, 4, 0, 4, 0, 0
2023-12-01, 3, 0, 2, 0, 0
2023-12-02, 3, 0, 3, 0, 0
2023-12-03, 5, 0, 5, 0, 0
2023-12-05, 3, 0, 3, 0, 0
2023-12-06, 1, 1, 1, 0, 0
2023-12-07, 4, 0, 3, 0, 0
2023-12-08, 3, 0, 3, 0, 0
2023-12-09, 3, 0, 3, 0, 0
2023-12-10, 2, 0, 2, 0, 0
2023-12-12, 1, 0, 1, 0, 0
2023-12-13, 0, 3, 0, 0, 0
2023-12-14, 0, 1, 0, 0, 0
2023-12-15, 1, 0, 0, 0, 0
2023-12-16, 2, 0, 2, 0, 0
2023-12-17, 2, 0, 2, 0, 0
2023-12-18, 2, 1, 2, 0, 0
2023-12-19, 2, 0, 1, 0, 0
2023-12-20, 3, 0, 2, 0, 0
2023-12-21, 1, 0, 1, 0, 0
2023-12-22, 3, 0, 3, 0, 0
2023-12-23, 2, 1, 2, 0, 0
2023-12-25, 3, 0, 3, 0, 0
2023-12-26, 2, 0, 2, 0, 0
2023-12-27, 3, 0, 3, 0, 0
2023-12-28, 2, 0, 1, 0, 0
2023-12-29, 3, 0, 3, 0, 0
2023-12-30, 1, 0, 1, 0, 0
2023-12-31, 3, 0, 3, 0, 0
2024-01-01, 1, 0, 1, 0, 0
2024-01-02, 2, 2, 2, 0, 0
2024-01-03, 3, 0, 3, 0, 0
2024-01-04, 1, 0, 0, 0, 0
2024-01-05, 3, 0, 2, 0, 0
2024-01-06, 3, 0, 2, 0, 0
2024-01-07, 3, 0, 3, 0, 0
2024-01-08, 4, 0, 4, 0, 0
2024-01-09, 3, 0, 3, 0, 0
2024-01-10, 3, 1, 3, 0, 0
2024-01-12, 9, 0, 3, 0, 6
2024-01-13, 15, 4, 4, 0, 11
2024-01-14, 11, 1, 5, 0, 5
2024-01-15, 12, 4, 0, 0, 10
2024-01-16, 8, 2, 3, 0, 5
2024-01-18, 8, 3, 2, 0, 6
2024-01-19, 7, 0, 4, 0, 3
2024-01-20, 3, 0, 3, 0, 0
2024-01-21, 4, 0, 2, 0, 2
2024-01-22, 4, 1, 3, 0, 1
2024-01-23, 4, 0, 3, 0, 1
2024-01-24, 2, 0, 2, 0, 0
2024-01-25, 1, 1, 0, 0, 1
2024-01-26, 2, 0, 2, 0, 0
2024-01-27, 10, 1, 3, 0, 7
2024-01-28, 5, 0, 4, 0, 1
2024-01-29, 2, 1, 2, 0, 0
2024-01-30, 3, 0, 2, 0, 0
2024-01-31, 2, 1, 2, 0, 1
2024-02-02, 3, 1, 3, 0, 0
2024-02-03, 3, 1, 2, 0, 1
2024-02-04, 6, 0, 5, 0, 1
2024-02-05, 3, 0, 3, 0, 0
2024-02-06, 1, 0, 1, 0, 0
2024-02-07, 5, 1, 3, 0, 2
2024-02-08, 3, 0, 2, 0, 1
2024-02-11, 3, 0, 3, 0, 0
2024-02-12, 1, 2, 1, 0, 2
2024-02-13, 4, 0, 3, 0, 0
2024-02-14, 4, 0, 2, 0, 1
2024-02-15, 3, 0, 3, 0, 0
2024-02-16, 3, 1, 2, 0, 1
2024-02-17, 2, 0, 2, 0, 0
2024-02-18, 4, 0, 4, 0, 0
2024-02-19, 2, 0, 1, 0, 1
2024-02-20, 2, 0, 1, 0, 1
2024-02-22, 1, 1, 1, 0, 0
2024-02-23, 4, 0, 3, 0, 0
2024-02-24, 5, 0, 3, 0, 2
2024-02-25, 6, 0, 6, 0, 0
2024-02-26, 1, 0, 1, 0, 0
2024-02-27, 1, 0, 0, 0, 1
2024-02-28, 5, 0, 5, 0, 0
2024-02-29, 3, 0, 3, 0, 0
2024-03-01, 5, 0, 5, 0, 0
2024-03-02, 3, 1, 3, 0, 0
2024-03-03, 4, 1, 4, 0, 0
2024-03-05, 4, 0, 4, 0, 0
2024-03-06, 5, 1, 5, 0, 0
2024-03-07, 3, 1, 3, 0, 0
2024-03-08, 3, 0, 3, 0, 0
2024-03-09, 4, 0, 1, 0, 2
2024-03-10, 3, 5, 3, 0, 0
2024-03-11, 6, 0, 4, 0, 1
2024-03-12, 3, 0, 3, 0, 0
2024-03-13, 3, 2, 3, 0, 0
2024-03-14, 3, 0, 3, 0, 0
2024-03-15, 2, 0, 1, 0, 1
2024-03-16, 3, 1, 3, 0, 0
2024-03-17, 1, 0, 1, 0, 0
2024-03-18, 2, 0, 2, 0, 0
2024-03-19, 1, 0, 0, 0, 0
2024-03-20, 3, 0, 3, 0, 0
2024-03-21, 5, 0, 5, 0, 0
2024-03-22, 1, 1, 0, 0, 0
2024-03-23, 1, 0, 1, 0, 0
2024-03-24, 3, 1, 3, 0, 0
2024-03-25, 4, 1, 3, 0, 1
2024-03-26, 1, 0, 1, 0, 0
2024-03-28, 3, 0, 3, 0, 0
2024-03-29, 4, 0, 4, 0, 0
2024-03-30, 3, 0, 1, 0, 1
2024-03-31, 5, 1, 3, 0, 1
2024-04-01, 2, 1, 2, 0, 0
2024-04-02, 4, 0, 4, 0, 0
2024-04-03, 1, 1, 0, 0, 0
2024-04-04, 3, 1, 1, 0, 2
2024-04-05, 1, 0, 1, 0, 0
2024-04-06, 1, 0, 1, 0, 0
2024-04-07, 4, 0, 4, 0, 0
2024-04-08, 5, 0, 4, 0, 1
2024-04-10, 4, 0, 4, 0, 0
2024-04-12, 3, 0, 3, 0, 0
2024-04-13, 4, 0, 1, 0, 0
2024-04-14, 1, 0, 1, 0, 0
2024-04-15, 3, 0, 2, 0, 1
2024-04-16, 5, 0, 5, 0, 0
2024-04-17, 1, 0, 1, 0, 0
2024-04-18, 3, 1, 3, 0, 0
2024-04-19, 5, 1, 4, 0, 0
2024-04-20, 3, 0, 1, 0, 0
2024-04-21, 4, 0, 4, 0, 0
2024-04-22, 1, 0, 1, 0, 0
2024-04-23, 1, 0, 1, 0, 0
2024-04-24, 3, 0, 3, 0, 0
2024-04-25, 2, 0, 2, 0, 0
2024-04-26, 5, 3, 4, 0, 0
2024-04-27, 1, 1, 0, 0, 0
2024-04-28, 2, 0, 2, 0, 0
2024-04-29, 1, 0, 1, 0, 0
2024-04-30, 4, 0, 4, 0, 0
2024-05-01, 1, 3, 1, 0, 0
2024-05-02, 1, 0, 1, 0, 0
2024-05-03, 2, 0, 0, 0, 0
2024-05-04, 5, 1, 5, 0, 0
2024-05-05, 1, 0, 1, 0, 0
2024-05-06, 5, 0, 4, 0, 1
2024-05-07, 4, 0, 3, 0, 0
2024-05-08, 2, 0, 1, 0, 0
2024-05-09, 1, 0, 1, 0, 0
2024-05-10, 2, 0, 2, 0, 0
2024-05-11, 2, 0, 1, 0, 0
2024-05-12, 2, 1, 2, 0, 0
2024-05-13, 1, 11, 1, 0, 0
2024-05-14, 2, 0, 2, 0, 0
2024-05-15, 2, 0, 1, 0, 0
2024-05-16, 3, 1, 3, 0, 0
2024-05-17, 3, 1, 3, 0, 0
2024-05-18, 2, 0, 2, 0, 0
2024-05-19, 4, 0, 2, 0, 0
